{"data":{"norad_id":63000,"intl_designator":"2025-031V","name":"STARLINK-32673","alt_names":[],"object_type":"PAYLOAD","status":"ACTIVE","operator":null,"country":"US","launch_date":"2025-02-11","launch_site_code":"AFETR","launch_vehicle":null,"mission":null,"orbit_class":"UNKNOWN","rcs_meters":null,"size_class":null,"mass_kg":null,"dimensions":null,"purposes":["comms"],"wikipedia_slug":null,"has_3d_model":false,"image_url":null,"decayed_at":null,"tle_current":{"epoch":"2026-09-20T00:21:43.729344Z","epoch_age_seconds":207063,"freshness":"STALE","line1":"1 63000U 25031V   26263.01508946  .00016653  00000+0  61296-3 0  9999","line2":"2 63000  43.0034 125.9866 0001451 291.4703  68.5994 15.27599351 90815","mean_motion":15.27599351,"eccentricity":0.0001451,"inclination_deg":43.0034,"raan_deg":125.9866,"arg_perigee_deg":291.4703,"mean_anomaly_deg":68.5994,"bstar":0.00061296,"rev_number":9081,"period_min":94.265554581268,"perigee_km":481.99560310087,"apogee_km":483.98670249081,"semimajor_km":6861.1281527958,"source":"CELESTRAK","updated_at":"2026-09-22T09:00:49.720434Z"}}}